Le Raizet Airport, Guadeloupe

3:15 PM AST on June 22, 2018 (GMT -0400)
Le Raizet

Weather History for TFFR - September, 2017

Change the Weather History Date:

Thursday, September 21, 2017

  Actual Average Record
Temperature  
Mean Temperature 82 °F -  
Max Temperature 87 °F 86 °F 91 °F (1999)
Min Temperature 78 °F 73 °F 73 °F (1998)
Cooling Degree Days 18    
Growing Degree Days 32 (Base 50)    
Moisture  
Dew Point 76 °F    
Average Humidity 82    
Maximum Humidity 94    
Minimum Humidity 55    
Precipitation  
Precipitation 0.02 in 0.30 in - ()
Sea Level Pressure  
Sea Level Pressure 29.89 in    
Wind  
Wind Speed 9 mph ()    
Max Wind Speed 18 mph    
Max Gust Speed -    
Visibility 6.5 miles    
Events Rain    
Averages and records for this station are not official NWS values.
T = Trace of Precipitation, MM = Missing Value Source: Averaged Metar Reports

Daily Weather History Graph

Daily Weather History Graph

Search for Another Location

Airport or City:

Astronomy

Sep. 21, 2017 Rise Set
Actual Time 5:55 AM AST 6:02 PM AST
Civil Twilight 5:33 AM AST 6:24 PM AST
Nautical Twilight 5:08 AM AST 6:49 PM AST
Astronomical Twilight 4:43 AM AST 7:14 PM AST
Moon 7:02 AM AST (9/21) 7:18 PM AST (9/21)
Length of Visible Light 12h 50m
Length of Day
12h 07m
New Moon, 2% of the Moon is Illuminated
Sep 21
New Moon
Sep 27
First Quarter
Oct 5
Full
Oct 12
Last Quarter
Oct 19
New

Hourly Weather History & Observations

Time (AST) Temp. Heat Index Dew Point Humidity Pressure Visibility Wind Dir Wind Speed Gust Speed Precip Events Conditions
12:00 AM 80.6 °F 87.1 °F 77.0 °F 89% 29.92 in 6.2 mi SE 6.9 mph - N/A   Mostly Cloudy
12:30 AM 80.6 °F 87.1 °F 77.0 °F 89% 29.92 in 6.2 mi SE 8.1 mph - N/A   Overcast
1:00 AM 80.6 °F 87.1 °F 77.0 °F 89% 29.89 in 6.2 mi SE 9.2 mph - N/A   Overcast
1:30 AM 80.6 °F 87.1 °F 77.0 °F 89% 29.89 in - SE 5.8 mph - N/A   Clear
2:00 AM 80 °F - 77 °F 88% 29.89 in 31 mi SE 8.1 mph - -   Clear
2:00 AM 80.6 °F 87.1 °F 77.0 °F 89% 29.89 in - SE 8.1 mph - N/A   Clear
2:30 AM 80.6 °F 87.1 °F 77.0 °F 89% 29.86 in 6.2 mi SE 4.6 mph - N/A   Scattered Clouds
3:00 AM 78.8 °F - 77.0 °F 94% 29.86 in 6.2 mi SE 4.6 mph - N/A   Partly Cloudy
3:30 AM 78.8 °F - 77.0 °F 94% 29.86 in 6.2 mi SE 4.6 mph - N/A   Partly Cloudy
4:00 AM 80.6 °F 87.1 °F 77.0 °F 89% 29.86 in 6.2 mi SSE 5.8 mph - N/A   Mostly Cloudy
4:30 AM 80.6 °F 87.1 °F 77.0 °F 89% 29.86 in 6.2 mi SSE 8.1 mph - N/A   Partly Cloudy
5:00 AM 80 °F - 77 °F 88% 29.89 in 22 mi SSE 8.1 mph - -   Clear
5:00 AM 80.6 °F 87.1 °F 77.0 °F 89% 29.89 in 6.2 mi SSE 8.1 mph - N/A   Partly Cloudy
5:30 AM 80.6 °F 87.1 °F 77.0 °F 89% 29.89 in 6.2 mi SE 5.8 mph - N/A   Mostly Cloudy
6:00 AM 80.6 °F 87.1 °F 77.0 °F 89% 29.89 in 6.2 mi ESE 5.8 mph - N/A   Mostly Cloudy
6:30 AM 78.8 °F - 77.0 °F 94% 29.89 in 6.2 mi ESE 9.2 mph - N/A Rain Light Rain
7:00 AM 80.6 °F 88.1 °F 78.8 °F 94% 29.89 in 5.0 mi SE 6.9 mph - N/A   Mostly Cloudy
7:30 AM 82.4 °F 92.4 °F 78.8 °F 89% 29.92 in 6.2 mi SE 8.1 mph - N/A   Mostly Cloudy
8:00 AM 83 °F - 78 °F 82% 29.92 in 17 mi SE 12.7 mph - -   Clear
8:00 AM 84.2 °F 96.1 °F 78.8 °F 84% 29.92 in 6.2 mi SE 12.7 mph - N/A   Scattered Clouds
8:30 AM 84.2 °F 94.1 °F 77.0 °F 79% 29.92 in 6.2 mi SE 11.5 mph - N/A   Mostly Cloudy
9:00 AM 84.2 °F 96.1 °F 78.8 °F 84% 29.92 in 6.2 mi SE 15.0 mph - N/A   Mostly Cloudy
9:30 AM 84.2 °F 94.1 °F 77.0 °F 79% 29.92 in 6.2 mi SE 13.8 mph - N/A   Mostly Cloudy
10:00 AM 84.2 °F 92.3 °F 75.2 °F 74% 29.92 in 6.2 mi SE 17.3 mph - N/A   Mostly Cloudy
10:30 AM 86.0 °F 96.9 °F 77.0 °F 74% 29.92 in 6.2 mi SE 16.1 mph - N/A   Mostly Cloudy
11:00 AM 86 °F - 75 °F 63% 29.92 in 31 mi SE 15.0 mph - -   Clear
11:00 AM 86.0 °F 95.1 °F 75.2 °F 70% 29.92 in 6.2 mi SE 15.0 mph - N/A   Mostly Cloudy
11:30 AM 86.0 °F 95.1 °F 75.2 °F 70% 29.89 in 6.2 mi SE 18.4 mph - N/A   Scattered Clouds
12:00 PM 86.0 °F 95.1 °F 75.2 °F 70% 29.89 in 6.2 mi SE 17.3 mph - N/A   Partly Cloudy
12:30 PM 87.8 °F 97.6 °F 75.2 °F 66% 29.89 in 6.2 mi SE 13.8 mph - N/A   Partly Cloudy
1:00 PM 87.8 °F 97.6 °F 75.2 °F 66% 29.89 in 6.2 mi ESE 16.1 mph - N/A   Scattered Clouds
1:30 PM 86.0 °F 95.1 °F 75.2 °F 70% 29.86 in 6.2 mi SE 12.7 mph - N/A   Scattered Clouds
2:00 PM 87 °F - 73 °F 55% 29.87 in 28 mi SE 16.1 mph - -   Clear
2:00 PM 86.0 °F 93.4 °F 73.4 °F 66% 29.86 in 6.2 mi SE 16.1 mph - N/A   Scattered Clouds
2:30 PM 87.8 °F 97.6 °F 75.2 °F 66% 29.86 in 6.2 mi SSE 16.1 mph - N/A   Mostly Cloudy
3:00 PM 86.0 °F 95.1 °F 75.2 °F 70% 29.86 in 6.2 mi SE 17.3 mph - N/A   Scattered Clouds
3:30 PM 86.0 °F 96.9 °F 77.0 °F 74% 29.86 in 6.2 mi SE 16.1 mph - N/A   Scattered Clouds
4:00 PM 84.2 °F 90.9 °F 73.4 °F 70% 29.86 in 6.2 mi ESE 15.0 mph - N/A   Partly Cloudy
4:30 PM 84.2 °F 92.3 °F 75.2 °F 74% 29.86 in - SE 12.7 mph - N/A   Clear
5:00 PM 83 °F - 76 °F 74% 29.86 in 22 mi SE 13.8 mph - -   Clear
5:00 PM 84.2 °F 94.1 °F 77.0 °F 79% 29.86 in - SE 13.8 mph - N/A   Clear
5:30 PM 82.4 °F 90.9 °F 77.0 °F 84% 29.86 in 6.2 mi SE 11.5 mph - N/A   Partly Cloudy
6:00 PM 82.4 °F 90.9 °F 77.0 °F 84% 29.86 in - SE 9.2 mph - N/A   Clear
6:30 PM 80.6 °F 87.1 °F 77.0 °F 89% 29.86 in - SE 9.2 mph - N/A   Clear
7:00 PM 80.6 °F 87.1 °F 77.0 °F 89% 29.89 in - SE 9.2 mph - N/A   Clear
7:30 PM 80.6 °F 87.1 °F 77.0 °F 89% 29.89 in - SE 8.1 mph - N/A   Clear
8:00 PM 80 °F - 76 °F 85% 29.91 in 31 mi SE 6.9 mph - -   Clear
8:00 PM 80.6 °F 87.1 °F 77.0 °F 89% 29.89 in - SE 6.9 mph - N/A   Clear
8:30 PM 80.6 °F 86.2 °F 75.2 °F 84% 29.89 in - SE 8.1 mph - N/A   Clear
9:00 PM 80.6 °F 86.2 °F 75.2 °F 84% 29.89 in - SE 8.1 mph - N/A   Clear
9:30 PM 80.6 °F 86.2 °F 75.2 °F 84% 29.89 in - SE 5.8 mph - N/A   Clear
10:00 PM 80.6 °F 86.2 °F 75.2 °F 84% 29.92 in 6.2 mi SE 4.6 mph - N/A   Partly Cloudy
10:30 PM 78.8 °F - 75.2 °F 89% 29.92 in - ESE 3.5 mph - N/A   Clear
11:00 PM 79 °F - 76 °F 90% 29.92 in 22 mi ESE 3.5 mph - -   Clear
11:00 PM 78.8 °F - 77.0 °F 94% 29.92 in 6.2 mi ESE 3.5 mph - N/A   Partly Cloudy
11:30 PM 78.8 °F - 77.0 °F 94% 29.92 in 6.2 mi SE 3.5 mph - N/A   Partly Cloudy